Wind_Speed
29 30 31 32 33 34 35 37 38 39 40 41 41 42 42 43 43 44 45 46 47 48 49 50 51 52 53 54 55 56 57 58 59 59 60 61 61 62 62 63 63 63 64 64 65 66 66 67 67 68 69 69 70 71 71 72 73 73 74 75 75 76 77 79 80 79 76 77 80 80 81 82 82 81 81 80 78 77 76 75 74 74 73 73 73
31 32 33 34 36 37 38 39 40 41 42 43 43 44 44 45 46 47 48 49 50 51 52 52 53 54 55 56 57 58 58 59 59 60 60 61 61 62 62 62 63 63 64 64 65 65 66 66 67 68 69 69 70 71 72 72 73 73 74 75 75 76 77 78 79 80 78 78 80 81 81 83 83 82 83 83 82 81 80 78 77 77 77 77 77
35 36 37 38 39 40 41 42 43 43 44 44 45 46 47 47 48 50 51 52 52 53 54 55 56 57 57 58 58 58 59 59 59 60 60 61 61 61 62 62 63 63 63 64 64 65 66 66 67 68 69 70 70 71 72 72 73 73 73 73 74 75 76 77 78 79 79 79 79 81 82 83 84 83 83 85 85 84 84 82 80 79 78 78 79
37 38 39 40 41 42 43 44 44 45 45 46 46 47 49 50 51 52 53 54 55 55 56 57 58 58 58 59 59 59 59 59 59 59 60 60 61 61 62 62 63 63 64 64 65 65 66 66 67 68 68 69 70 70 71 71 71 72 72 72 72 73 73 74 75 76 78 79 79 80 81 82 83 83 84 84 85 86 86 87 85 83 81 79 78
39 40 41 42 42 43 44 44 45 46 46 47 48 49 50 52 53 54 55 56 57 57 58 58 59 59 59 59 59 59 59 59 59 59 59 60 60 61 61 62 63 63 64 65 65 66 66 67 67 68 68 69 69 69 69 69 70 70 71 71 71 71 72 72 73 73 75 77 78 79 79 80 82 82 82 83 85 86 87 87 88 87 85 83 80
40 41 41 42 43 44 45 45 46 47 48 49 50 51 52 54 55 56 57 57 58 58 58 59 59 59 59 59 59 59 59 59 58 59 59 59 60 61 61 62 63 63 64 65 66 66 67 67 67 67 68 67 68 68 69 69 69 69 69 70 70 70 71 71 71 72 72 74 75 76 77 78 79 80 80 80 82 84 85 86 86 86 86 85 84
40 41 42 43 44 45 46 47 47 48 50 51 52 53 54 55 56 57 58 58 58 58 57 57 57 57 57 57 57 57 57 57 57 58 58 59 60 60 61 61 62 63 64 65 66 66 66 66 66 66 66 67 67 68 69 69 69 69 69 70 70 70 70 70 70 70 71 72 73 74 74 75 76 77 77 77 78 79 80 81 82 83 82 82 83
41 42 43 44 44 45 46 48 49 50 52 53 54 55 56 57 57 57 57 57 57 56 56 55 55 55 55 55 55 55 55 56 56 57 57 58 59 60 60 61 62 63 64 65 65 65 64 64 65 66 66 67 67 67 68 69 70 70 70 70 70 70 70 70 70 70 70 71 71 72 72 73 74 74 74 74 74 75 75 75 77 79 79 78 79
42 42 43 44 45 46 48 50 51 53 54 55 56 56 57 57 57 56 56 55 55 55 54 54 54 54 54 54 55 55 55 56 56 57 58 59 60 60 61 62 63 64 64 64 63 63 63 63 64 64 65 66 66 66 67 68 69 70 70 69 69 69 69 69 69 69 69 70 70 71 71 72 72 72 71 71 71 71 71 71 72 74 75 75 76
42 42 43 45 47 49 51 52 54 55 55 56 56 56 55 55 54 54 53 53 52 52 52 53 53 53 54 54 54 55 55 56 56 57 58 59 60 61 62 63 64 64 63 63 62 62 62 62 62 62 62 63 64 65 66 66 67 68 68 68 68 68 68 68 68 68 68 68 69 69 70 71 70 69 69 69 68 68 69 69 69 70 71 72 73
42 44 46 48 50 52 53 55 55 55 55 55 54 53 53 52 51 51 50 50 50 50 51 51 52 52 53 53 54 54 54 55 55 56 56 57 58 60 62 63 63 62 61 61 61 62 62 61 61 60 60 60 61 62 63 63 64 64 65 65 65 65 66 66 67 66 66 67 67 67 68 69 69 67 66 66 65 65 66 67 67 68 68 69 70
45 47 49 51 53 54 55 55 55 54 53 52 51 50 49 49 48 48 48 48 48 49 50 50 51 52 52 52 53 53 53 54 54 54 54 54 56 59 61 60 59 58 59 59 59 59 60 60 59 59 58 58 58 59 59 59 60 60 60 60 61 61 61 62 63 64 64 64 65 66 65 66 66 64 63 63 63 64 64 65 65 65 65 66 67
48 51 52 54 54 54 54 53 52 51 50 49 48 47 46 46 46 46 46 47 47 48 49 49 50 50 51 51 51 51 51 51 51 52 52 52 53 56 57 55 54 55 55 55 56 56 57 58 58 59 58 58 58 58 57 57 57 57 57 57 58 58 58 58 58 59 60 61 62 63 62 60 61 61 60 60 61 62 62 63 62 62 62 62 63
51 53 54 54 53 52 51 50 48 47 46 45 45 44 44 44 45 45 46 46 46 47 47 47 48 48 48 49 49 48 48 48 48 48 49 49 50 52 51 50 50 51 51 52 53 54 56 57 58 58 59 59 58 57 57 56 56 56 56 55 56 56 55 55 55 55 55 55 56 58 57 55 56 58 59 57 57 58 59 59 59 59 59 59 59
52 53 52 52 50 49 47 46 44 43 43 42 42 43 43 43 44 44 45 45 45 46 46 46 46 46 46 46 46 46 45 45 45 44 45 46 48 48 47 47 47 48 48 50 51 53 54 55 56 57 57 57 56 56 55 55 55 56 56 55 54 53 53 53 52 51 51 50 51 52 52 52 52 55 56 56 55 56 55 55 55 54 55 56 55
51 51 49 48 47 45 43 42 41 41 41 41 42 42 42 42 43 43 43 44 44 44 44 44 44 44 44 44 43 43 42 42 41 42 43 45 46 46 45 45 45 46 47 48 49 51 51 52 52 53 53 53 53 52 51 51 53 55 55 54 53 52 52 51 50 48 47 46 45 43 45 47 48 48 50 52 54 53 51 50 49 49 50 52 52
48 47 45 44 42 41 40 39 39 39 40 40 41 41 41 41 41 41 41 42 42 42 41 42 42 41 41 41 41 40 40 39 39 39 41 43 44 44 44 44 44 45 45 46 47 47 47 47 48 48 48 48 48 47 46 47 50 51 52 52 52 52 52 51 49 47 44 42 40 38 39 43 43 41 43 46 49 48 47 47 46 45 46 47 48
43 42 40 39 38 37 37 37 37 38 39 39 39 39 40 40 40 39 39 39 39 39 39 39 39 39 39 39 39 39 38 38 37 38 39 41 43 43 43 43 43 44 44 44 44 44 43 43 43 44 44 44 43 43 42 43 45 47 48 50 50 49 48 47 47 46 44 42 40 39 39 40 40 40 41 42 43 43 43 45 45 44 45 45 46
39 37 36 35 35 35 36 36 37 37 37 38 38 38 38 38 38 38 37 37 37 37 36 36 37 37 37 38 38 37 37 37 36 37 38 40 42 42 42 42 42 42 42 42 42 41 40 40 40 40 40 40 38 38 38 38 40 44 46 46 46 45 43 43 45 44 43 42 41 40 39 39 39 40 41 42 42 42 41 43 44 45 46 45 45
34 33 33 33 34 35 35 36 36 36 36 36 36 36 36 36 36 36 35 35 35 35 35 35 35 36 36 36 36 36 36 35 35 36 37 38 40 40 40 40 40 40 40 40 40 40 38 37 37 36 36 36 33 33 34 35 37 41 43 42 42 41 40 41 42 43 41 41 40 39 39 38 38 39 40 41 43 43 43 44 46 46 47 47 46
32 32 32 32 33 34 34 34 34 34 34 34 34 35 34 34 33 33 33 33 32 33 33 33 33 34 34 34 35 35 35 34 34 34 35 36 38 39 38 38 39 39 39 39 39 38 37 36 35 34 33 32 30 29 31 33 36 38 38 37 38 39 40 40 41 42 42 41 40 39 39 38 37 37 38 39 40 40 41 43 45 46 47 47 46
30 30 31 31 31 32 32 32 32 32 32 32 32 32 32 31 31 30 30 30 30 30 31 31 31 32 32 33 33 33 33 33 33 33 33 34 36 37 37 37 37 37 37 38 38 37 36 35 34 32 30 29 28 28 30 31 33 33 33 34 36 38 40 40 41 42 42 41 40 39 39 38 37 37 37 38 38 38 39 40 41 43 44 45 46
28 29 29 29 30 30 30 30 30 30 30 30 30 29 29 29 28 28 28 28 28 28 29 29 29 30 30 30 31 31 31 31 31 31 31 32 33 34 35 36 36 36 37 38 38 37 36 34 33 31 29 27 26 27 28 29 29 28 29 32 33 35 37 39 41 41 41 41 41 40 39 39 38 38 38 38 39 39 39 40 41 42 43 44 45
27 27 27 27 28 28 28 28 28 28 28 27 27 27 27 26 26 26 26 26 26 27 27 27 27 28 28 29 29 29 29 30 30 30 30 30 31 32 33 34 34 35 35 36 37 36 35 34 32 31 29 27 25 24 25 27 27 26 26 28 29 31 34 37 39 40 40 41 42 41 40 39 39 39 39 38 38 39 39 40 41 42 43 44 44
25 25 25 26 26 26 27 26 26 26 26 25 25 25 25 25 24 24 24 25 26 26 26 26 27 27 27 27 28 28 28 28 28 28 29 29 30 30 31 31 31 32 33 33 34 34 34 33 32 31 30 28 25 24 23 24 24 25 25 25 26 29 31 33 35 37 38 40 40 40 40 40 39 40 39 38 38 38 38 39 40 42 43 43 44
24 24 24 24 25 25 25 25 25 25 25 24 24 24 24 24 24 23 24 24 25 26 26 26 26 26 26 27 27 27 27 27 27 27 27 28 28 28 28 27 28 29 30 31 32 32 31 31 31 30 29 28 26 24 23 22 21 22 22 23 25 26 28 30 32 33 34 36 37 37 38 38 38 38 37 37 38 38 37 38 39 40 41 42 43
23 23 23 23 23 23 24 24 24 24 24 24 25 25 25 25 24 24 24 24 24 25 26 25 25 25 25 25 26 27 27 27 27 27 26 26 26 26 26 26 26 27 28 29 29 29 29 29 29 29 28 27 27 25 24 22 21 20 20 21 22 24 26 27 29 30 31 32 33 34 34 35 35 35 35 36 36 36 36 37 38 38 39 40 41
22 22 22 22 22 22 22 23 23 24 25 26 26 26 26 26 26 24 24 23 23 23 24 24 24 24 25 24 24 25 27 27 27 27 27 27 26 26 26 26 26 27 28 28 28 28 29 29 28 28 27 27 27 26 25 24 22 21 20 19 20 21 22 24 26 27 29 30 30 31 32 32 33 33 33 34 34 34 34 35 36 36 37 37 38
21 21 21 21 21 21 22 23 23 25 26 27 28 27 25 24 24 24 23 22 22 22 22 22 22 22 23 24 23 23 24 26 27 28 28 29 29 28 28 27 27 27 28 28 28 28 28 29 29 28 27 26 26 26 25 25 23 22 22 21 20 20 20 22 23 24 25 26 27 28 29 29 29 30 30 30 30 30 31 32 33 34 34 35 36
20 20 20 20 20 21 22 23 24 25 26 27 28 27 25 23 22 21 21 21 21 21 21 21 21 21 22 23 24 24 24 25 26 27 28 29 29 29 29 29 28 28 28 28 28 28 28 28 29 28 28 27 26 25 24 24 23 22 22 22 22 21 21 21 22 22 22 23 24 24 25 25 25 25 26 26 26 26 27 28 30 31 31 32 32
19 20 20 20 20 21 22 23 23 23 22 22 24 25 25 24 22 21 21 21 21 22 22 22 22 22 21 21 22 24 24 24 25 25 26 27 28 28 28 28 28 28 28 27 27 27 27 26 27 27 27 27 26 26 25 24 23 22 21 21 22 22 22 22 22 22 21 21 21 22 22 22 22 22 22 22 22 22 24 25 26 27 28 29 29
19 19 20 20 20 21 21 21 21 20 19 19 19 20 23 25 25 25 24 23 22 22 22 23 23 23 23 22 22 22 22 23 23 24 25 25 26 27 28 27 27 27 27 27 27 26 26 26 26 26 26 25 25 25 25 24 24 23 22 21 21 21 22 22 22 21 21 21 20 20 20 20 21 20 20 20 20 20 21 22 23 24 25 25 25
19 19 19 19 19 19 19 19 18 17 17 17 17 17 18 20 23 25 26 27 26 25 25 24 24 24 25 24 23 23 23 23 23 23 23 24 25 26 27 27 27 26 26 26 26 26 26 27 27 26 26 25 25 24 24 24 23 22 22 21 21 21 21 22 21 21 21 20 20 20 20 20 20 20 19 20 20 20 20 21 22 22 23 23 23
18 18 17 17 17 17 17 16 16 16 16 16 16 16 16 17 18 19 21 24 26 27 27 26 26 25 25 25 25 25 24 24 24 23 23 23 24 24 25 27 27 27 26 26 26 26 26 26 26 26 26 26 25 25 24 24 23 22 22 21 21 21 21 21 21 21 20 20 20 20 20 20 20 20 19 19 20 20 20 21 22 22 22 23 23
16 16 15 15 15 15 15 15 16 16 16 16 16 16 16 17 17 17 18 18 20 22 23 25 25 25 25 25 25 25 25 25 25 24 23 23 23 23 24 25 26 26 26 26 26 25 25 25 25 25 25 25 25 24 24 24 23 23 22 21 21 21 20 20 20 20 20 20 20 20 20 20 20 20 20 19 20 20 21 22 22 22 23 23 23
13 13 13 13 13 14 14 14 15 15 16 16 17 17 17 17 17 18 18 19 19 20 20 22 24 25 26 26 26 26 26 25 25 25 24 24 24 23 23 23 24 24 25 25 25 25 25 24 24 24 24 24 24 24 24 24 23 23 23 22 22 21 21 20 20 20 19 19 20 20 20 20 20 20 20 19 20 21 21 22 22 22 23 23 23
12 12 13 13 13 14 14 14 15 15 16 16 17 17 18 18 18 19 19 20 20 20 20 20 21 23 24 25 26 26 26 26 26 26 26 25 25 25 24 24 24 24 24 24 24 24 24 24 24 24 24 24 24 24 24 24 23 23 23 23 22 22 21 20 20 20 19 19 20 20 20 20 20 20 19 19 19 20 21 21 22 22 22 23 23
12 12 13 13 13 13 14 14 15 15 16 17 17 18 18 19 19 20 20 21 21 21 21 21 20 20 21 22 23 24 25 25 26 26 26 25 25 24 24 24 24 24 24 24 24 24 24 24 24 23 23 23 24 24 24 24 24 23 23 23 22 22 21 20 20 20 20 20 20 20 20 20 19 19 19 18 18 18 18 19 20 20 20 21 22
12 12 12 12 13 13 13 14 15 16 16 17 18 19 19 19 20 20 20 21 22 22 22 22 21 21 20 20 20 21 22 23 23 23 24 24 24 24 23 23 23 23 24 24 24 24 24 23 23 23 23 23 23 23 23 23 23 23 23 23 23 22 22 21 20 20 20 20 20 20 20 20 19 19 19 19 18 17 17 17 17 17 17 17 18
11 12 12 12 12 13 13 14 15 16 17 17 18 19 20 20 20 21 21 21 21 22 22 22 22 21 21 20 20 20 20 21 21 21 22 22 23 23 23 23 23 23 23 23 23 24 24 24 23 23 23 23 23 23 24 24 24 24 24 23 23 23 23 22 21 20 20 20 20 20 20 19 19 18 18 18 18 17 17 16 16 16 15 15 14
11 11 12 12 13 13 14 15 16 16 17 18 18 19 20 20 20 21 21 21 21 22 22 23 22 22 21 21 21 20 20 20 21 21 22 22 22 22 23 23 22 22 22 22 22 23 23 24 24 24 24 24 23 23 24 24 24 24 23 23 23 23 23 23 22 21 20 20 20 20 20 19 19 18 18 17 17 17 17 16 15 15 15 14 13
11 12 12 13 13 14 15 16 17 17 18 19 19 19 20 20 21 21 21 22 22 21 21 22 22 22 22 22 22 22 21 21 21 21 22 22 22 22 23 23 22 22 22 22 22 22 23 24 24 24 24 24 23 23 23 23 23 23 22 22 22 22 22 22 22 22 21 20 20 20 20 19 19 18 17 17 17 17 16 16 15 15 14 14 13
12 13 13 14 14 15 15 16 17 18 19 20 20 20 20 21 21 21 21 22 22 21 21 21 21 22 22 22 22 22 22 22 22 22 22 22 22 22 22 22 22 22 22 23 23 23 23 23 24 24 24 24 23 23 23 23 22 22 21 21 20 20 20 21 21 21 20 20 19 19 19 19 19 18 18 17 17 17 16 16 15 15 14 14 14
13 14 14 15 16 16 16 17 18 19 20 21 21 21 21 21 21 21 22 22 22 22 21 20 20 20 21 21 22 22 22 22 22 22 21 22 22 22 22 22 22 22 22 23 23 23 23 23 23 23 24 24 24 23 23 23 23 22 21 20 19 19 20 20 20 20 20 19 18 19 19 19 18 18 17 17 17 17 16 16 15 15 15 14 14
14 14 15 16 17 17 18 19 19 20 20 21 22 22 22 22 22 22 22 22 21 21 21 21 20 20 20 21 21 21 21 21 22 21 21 21 21 22 22 22 22 22 22 22 22 22 22 22 22 23 23 23 23 23 23 22 23 22 21 21 20 20 20 20 20 20 20 19 18 18 18 18 18 18 17 17 17 16 16 16 16 15 15 15 15
15 15 16 17 18 18 19 20 20 21 21 22 22 22 23 23 23 22 22 22 21 21 20 20 20 20 20 20 20 21 21 21 21 21 21 21 21 21 22 22 22 22 22 22 21 22 22 22 22 22 22 22 22 22 22 21 21 21 21 20 20 20 20 20 20 20 20 20 19 19 18 18 18 18 18 17 17 16 16 16 16 15 15 15 15
16 16 17 17 18 19 19 20 21 21 21 22 22 23 23 23 23 23 22 22 21 20 20 20 20 20 21 21 20 20 20 20 21 21 21 21 21 21 21 21 22 22 22 22 21 21 21 21 21 21 22 21 21 21 21 20 20 20 20 20 20 20 20 19 19 19 19 18 18 18 18 18 18 18 18 18 17 17 17 16 16 16 15 15 15
16 17 17 17 18 18 19 20 20 21 21 21 22 22 23 23 23 23 22 22 21 21 20 20 20 20 20 20 20 20 20 20 20 21 21 21 21 21 21 21 21 21 21 22 21 21 21 21 21 21 21 20 20 20 19 19 19 19 20 20 20 20 20 19 19 18 18 18 18 18 18 18 17 17 17 17 17 17 17 17 17 17 16 16 15
17 17 17 18 18 18 19 19 20 20 21 21 21 22 22 22 23 23 22 21 21 20 20 20 20 20 20 20 20 20 20 20 20 20 20 21 21 20 20 20 20 21 21 21 21 20 20 20 20 20 20 19 19 19 18 18 18 18 18 19 19 19 19 18 18 18 18 18 18 17 17 17 18 18 18 18 18 18 18 17 17 17 17 17 16
18 19 19 19 20 20 20 20 20 20 20 20 21 21 21 22 22 22 22 21 20 20 20 20 20 19 19 19 19 19 20 20 20 20 20 20 20 20 20 20 20 20 20 20 20 19 19 19 19 19 18 18 18 18 17 17 17 17 17 18 18 17 17 18 18 18 17 17 17 17 18 18 18 18 19 19 19 19 18 18 18 18 17 17 17
19 20 20 21 21 21 21 21 21 21 21 21 21 21 21 21 21 21 21 21 20 19 19 20 20 19 19 19 19 19 19 19 19 19 19 19 19 19 19 19 19 19 19 20 20 19 18 18 18 18 17 16 16 16 16 16 16 16 17 17 16 16 16 16 16 16 16 16 17 17 18 18 18 19 19 19 20 20 20 20 20 19 19 19 18
Wind_Direction
262 265 268 271 274 275 277 278 279 280 281 281 282 282 282 282 282 283 283 283 282 282 282 282 282 282 282 282 282 282 282 282 282 281 281 280 280 280 279 279 278 278 278 277 277 276 276 275 275 275 274 274 273 273 272 272 271 270 270 270 270 270 270 270 270 269 268 268 269 269 269 270 269 268 268 268 266 266 266 264 263 262 260 259 258
266 269 272 274 276 277 279 280 281 282 283 284 284 284 284 284 284 284 284 284 284 284 284 284 284 284 284 284 284 283 283 283 283 283 282 282 282 281 281 281 280 280 279 279 278 278 277 276 276 275 274 274 273 273 272 272 271 271 270 270 270 269 269 269 269 269 268 268 268 268 269 270 270 269 269 269 268 267 266 265 265 264 263 262 260
270 272 274 276 278 280 282 283 283 284 284 284 284 284 285 285 285 285 286 286 286 286 286 286 286 286 286 286 286 286 286 286 286 285 285 285 284 283 283 282 282 281 281 280 279 279 278 277 277 276 275 275 274 273 273 273 272 272 271 271 270 270 269 269 269 269 269 268 267 268 268 268 269 269 269 270 270 269 268 267 266 265 265 264 264
273 275 277 278 280 281 282 283 283 283 283 284 284 285 285 286 287 287 288 288 289 289 289 289 290 290 290 290 289 289 289 289 288 288 287 286 286 285 284 284 283 282 281 281 280 279 279 278 277 276 276 275 275 274 274 274 274 274 273 273 272 271 270 270 270 269 269 269 268 268 268 268 268 268 268 269 269 269 269 270 268 267 266 265 265
275 277 278 280 281 283 283 284 284 285 286 286 287 288 288 289 290 290 291 292 292 292 292 292 292 292 292 292 292 291 291 290 290 289 288 287 286 286 285 284 284 283 282 282 281 280 279 279 278 277 277 276 276 276 275 275 274 274 274 274 273 273 272 272 271 270 270 270 269 268 268 268 268 268 268 268 268 268 268 269 269 269 268 267 266
277 279 281 283 284 285 285 286 286 287 288 289 290 291 292 292 293 293 293 294 294 294 294 294 294 294 293 293 293 292 292 291 291 290 289 288 287 287 286 285 285 284 283 283 282 281 280 280 279 279 279 279 278 277 276 275 275 274 274 273 273 273 273 272 272 271 271 271 270 269 269 269 268 268 267 267 268 268 268 268 268 268 269 269 268
280 282 283 284 285 285 286 287 288 289 291 292 293 294 295 295 296 296 296 296 296 296 296 296 295 295 295 294 294 293 293 292 291 290 290 289 288 287 287 286 285 284 284 283 282 282 282 282 281 280 280 279 278 278 277 276 276 275 274 274 273 273 272 272 272 271 271 271 270 270 269 269 269 269 268 268 268 268 268 268 269 269 269 269 269
282 283 284 284 285 287 288 290 292 294 295 296 297 298 298 298 298 298 298 298 298 298 297 297 296 296 296 295 295 294 293 293 292 291 290 290 289 288 287 286 286 285 284 284 283 283 283 282 282 281 280 279 278 278 277 277 276 275 275 274 274 273 273 273 273 272 272 271 271 270 269 269 269 269 268 268 268 268 268 268 269 269 269 269 269
282 284 285 287 289 291 294 295 297 298 298 299 299 299 299 299 299 299 299 299 298 298 298 297 297 296 296 296 295 295 294 294 293 293 292 291 290 289 288 287 287 286 285 285 285 284 284 282 281 281 281 280 279 278 278 277 276 276 275 274 274 274 274 274 273 273 273 272 271 271 270 269 269 269 269 268 269 269 269 269 269 269 269 270 270
284 286 289 292 295 297 298 299 299 300 300 300 300 300 300 300 300 299 299 299 298 298 298 297 297 297 296 296 296 296 295 295 295 294 294 293 292 291 290 289 289 289 289 288 288 287 285 284 283 283 282 281 280 279 279 278 277 277 277 276 276 276 275 274 273 273 272 272 271 271 270 269 269 269 269 269 269 269 269 270 270 269 269 269 269
288 292 295 297 298 299 300 300 300 300 301 300 300 300 300 300 299 299 299 299 298 298 298 298 298 297 297 297 297 297 296 296 296 295 295 294 294 292 292 292 293 293 293 292 292 291 290 289 288 286 284 283 282 281 280 279 278 278 278 278 278 278 277 276 275 274 273 272 271 270 270 270 269 269 269 269 269 269 269 269 269 269 268 269 269
294 297 298 299 300 300 301 301 301 301 301 301 300 300 300 300 299 300 299 299 299 299 299 299 299 298 298 298 298 298 298 297 297 296 296 296 295 294 294 296 297 297 296 296 295 295 293 293 291 290 288 286 284 283 282 280 279 279 278 277 277 277 277 276 276 275 275 274 273 272 271 271 271 270 270 269 268 267 267 267 267 268 268 268 269
298 299 300 300 300 300 300 300 301 301 301 301 301 300 300 300 301 301 301 301 301 301 300 300 300 300 299 299 299 299 299 299 298 298 297 297 296 296 298 299 299 298 298 298 298 296 295 294 293 291 290 289 287 286 285 283 281 279 278 276 275 274 274 274 274 275 275 275 275 274 274 274 273 271 270 269 268 266 266 266 267 268 268 269 269
299 299 299 299 300 300 300 301 301 301 301 301 301 301 302 302 302 302 302 302 302 302 301 301 301 301 301 300 300 300 300 300 300 300 299 298 298 299 301 301 301 300 301 300 299 297 296 294 293 292 290 289 289 288 287 286 284 281 279 277 275 274 273 273 273 273 274 275 276 276 276 275 274 272 271 270 269 268 267 267 267 268 269 269 269
298 298 299 299 300 301 301 301 302 302 302 303 303 303 304 304 304 304 304 304 303 303 303 303 303 303 303 303 303 303 303 303 303 302 301 301 301 302 303 303 303 303 302 301 299 297 296 295 293 292 291 290 290 288 288 286 284 282 280 278 277 275 273 272 272 272 272 273 274 275 275 274 273 273 273 271 270 269 269 269 269 269 269 269 268
297 298 299 300 301 301 302 302 303 303 304 304 304 305 305 305 305 305 305 305 305 306 306 305 305 305 305 305 305 306 306 306 306 305 304 303 303 304 305 305 306 305 304 302 301 299 298 297 296 295 294 292 290 289 288 286 283 281 280 278 277 275 273 271 270 270 270 271 271 272 272 271 272 273 274 273 272 272 271 270 270 270 269 268 268
297 299 300 301 301 302 302 303 304 304 305 305 306 306 307 307 307 307 307 307 307 308 308 307 307 307 307 307 308 308 308 308 308 307 305 305 305 306 308 308 309 309 308 306 304 303 302 301 299 297 295 293 292 290 288 285 282 281 280 277 275 274 272 271 270 269 267 265 264 263 265 267 269 270 271 273 275 276 275 273 272 271 270 269 269
299 300 301 301 302 303 303 304 305 306 306 307 307 308 308 308 308 309 309 309 309 309 309 309 309 309 309 309 310 310 310 310 310 309 308 308 308 309 311 312 313 313 312 311 309 307 306 304 303 301 298 296 295 293 290 286 283 280 278 276 275 275 275 274 273 270 267 263 260 257 258 261 263 264 266 269 272 274 276 276 275 274 272 271 270
299 300 301 302 303 303 304 305 306 307 307 308 308 308 309 310 310 311 311 311 312 312 312 312 311 311 312 312 313 313 313 314 314 313 312 311 311 312 315 316 317 317 317 315 312 310 309 308 306 304 302 300 299 297 292 287 282 279 277 276 276 276 275 274 272 270 267 264 262 259 257 257 257 259 260 262 265 267 269 272 274 275 275 273 272
300 301 302 303 304 304 305 306 307 308 309 309 310 310 311 312 313 314 314 314 315 315 314 314 314 315 315 316 316 317 317 317 317 317 316 315 315 316 318 319 320 320 321 319 316 313 313 312 310 308 305 303 301 298 292 285 280 278 278 277 276 275 273 271 270 269 267 265 264 262 260 258 257 257 257 258 259 261 262 264 267 270 272 273 273
301 302 303 304 305 305 306 307 308 309 310 311 312 312 313 314 316 316 317 317 317 317 317 318 318 318 319 320 320 321 321 321 321 321 320 319 318 319 320 322 322 324 324 322 319 317 317 316 315 313 310 307 304 297 292 287 283 283 282 278 275 273 272 270 269 269 268 268 267 266 264 263 262 261 260 259 259 259 259 261 263 265 267 269 270
301 303 304 304 305 306 308 309 310 311 312 314 315 315 316 318 319 319 320 320 320 320 321 321 322 322 323 323 324 324 325 325 325 325 324 323 322 322 323 324 325 326 326 325 324 323 322 322 321 319 316 314 309 302 296 292 290 290 285 279 275 274 273 272 271 270 270 271 271 270 269 268 268 267 266 264 263 262 261 261 262 263 264 266 268
302 303 304 305 307 308 310 311 313 314 315 316 317 318 319 320 322 323 323 323 323 323 324 324 325 325 326 326 326 327 328 328 328 328 328 327 326 325 326 327 328 328 329 328 328 328 328 327 325 322 321 319 316 310 304 299 296 292 286 281 279 276 274 273 272 271 272 272 272 272 272 272 271 270 268 267 267 266 265 265 265 265 265 265 266
303 305 307 308 310 311 312 314 315 316 318 319 319 321 322 323 325 326 326 326 325 325 325 326 326 327 328 328 328 329 330 331 331 332 332 331 330 330 331 331 331 330 330 329 329 329 330 330 328 326 324 324 322 316 310 305 302 297 291 286 282 277 274 272 271 271 272 272 273 274 274 273 273 272 270 269 268 267 267 266 266 266 266 266 266
306 308 310 311 313 314 315 316 317 318 319 320 322 323 324 326 327 328 327 326 326 325 325 326 327 328 328 328 328 329 331 332 333 334 335 335 335 335 335 334 332 330 329 329 329 330 332 332 331 330 328 327 325 321 314 310 307 305 300 293 286 281 277 274 273 273 273 273 274 275 275 275 275 275 275 274 272 271 269 267 266 266 266 267 268
308 311 312 314 315 315 316 317 319 320 320 322 323 325 325 325 326 327 326 325 325 324 324 325 326 327 327 327 327 328 330 331 333 335 336 337 338 338 338 336 334 332 331 331 330 331 332 332 331 331 331 329 327 324 320 317 314 310 306 300 294 289 284 281 280 279 278 277 277 277 277 277 277 277 277 276 275 273 272 270 268 268 267 268 268
311 313 314 315 316 316 318 319 320 321 322 323 324 324 324 324 324 325 325 324 324 323 323 324 325 326 326 327 327 328 329 330 332 334 335 337 338 339 340 340 339 337 336 334 334 334 334 333 333 333 332 332 330 328 326 324 321 316 310 305 299 295 291 288 286 284 282 281 281 280 280 280 279 279 279 278 277 276 276 275 274 273 272 271 270
313 315 315 316 317 318 320 321 321 322 322 322 322 322 323 322 323 324 325 324 324 324 324 325 326 326 327 328 330 331 331 332 334 335 336 337 338 341 343 344 343 342 341 340 340 339 337 336 336 336 335 334 333 332 331 330 327 323 317 311 305 299 295 291 289 287 286 285 284 283 282 281 281 281 281 280 281 280 280 279 278 277 275 274 272
314 315 315 316 318 320 321 321 321 322 321 320 320 321 323 324 325 326 328 328 329 330 330 330 331 332 331 332 335 337 337 337 338 339 340 340 341 344 346 347 346 346 345 344 344 343 342 340 339 339 338 337 336 334 333 332 331 328 324 320 314 308 302 298 295 292 291 290 289 288 287 286 286 285 285 284 284 283 281 280 278 277 275 274 273
313 315 316 318 319 320 321 321 321 321 321 322 321 321 324 329 332 333 334 336 337 338 338 338 339 340 340 339 341 342 343 343 343 343 343 344 344 345 347 349 349 348 348 347 346 346 345 343 343 342 341 340 339 338 336 334 333 331 328 325 321 317 314 310 307 304 302 299 297 295 294 293 291 289 288 287 285 283 281 279 277 277 276 275 275
313 315 316 318 319 320 320 320 321 322 323 325 326 326 328 332 335 337 338 340 341 341 341 341 342 344 345 346 346 346 346 346 346 346 345 345 345 345 347 349 350 350 349 350 349 348 347 346 345 344 344 343 343 341 340 339 337 335 332 328 323 321 319 317 315 314 313 310 307 305 302 300 298 295 293 291 287 284 282 279 279 278 278 278 278
313 314 316 318 319 320 320 321 322 325 327 329 332 332 332 333 335 337 338 339 341 341 342 343 343 343 344 346 347 346 346 346 346 346 346 346 345 345 345 348 350 351 350 350 351 351 350 350 349 348 347 346 346 344 342 342 341 339 337 334 329 324 323 321 320 320 318 316 314 311 308 306 304 302 299 297 294 291 288 285 284 283 282 282 282
312 314 316 318 320 320 321 323 325 328 330 332 334 335 335 335 335 336 336 337 338 340 341 342 343 342 342 343 345 345 345 345 346 347 346 345 344 344 344 345 347 350 350 350 351 352 352 351 351 351 350 349 349 347 345 345 344 342 340 337 334 330 328 326 325 324 322 319 317 314 311 309 306 304 302 301 298 296 293 290 288 286 286 285 283
314 316 318 320 322 323 324 326 328 329 330 332 333 334 335 336 336 336 335 335 335 337 338 338 339 341 340 340 342 343 344 344 345 346 345 344 343 343 343 343 344 347 349 349 349 351 351 351 351 350 350 350 350 349 348 347 347 346 344 341 338 336 333 331 329 327 325 322 319 316 314 311 308 306 304 302 299 296 293 290 288 287 286 285 284
318 319 322 324 326 327 327 327 328 329 330 332 333 334 335 336 335 334 334 333 332 333 333 333 334 336 338 338 338 340 341 341 342 342 343 343 343 343 343 342 342 343 345 346 346 347 348 348 349 349 349 349 349 349 348 348 348 347 346 345 343 341 340 337 334 332 329 326 323 320 318 315 312 311 308 305 301 297 294 292 290 289 288 286 285
322 323 325 327 328 329 329 329 330 331 332 333 334 335 335 336 336 335 335 335 335 335 335 335 334 334 336 337 337 338 339 339 339 340 341 342 342 342 342 341 341 340 342 343 343 344 345 346 347 347 347 348 348 347 347 347 347 347 346 345 345 345 344 342 339 336 334 331 328 327 325 323 320 319 316 312 306 302 298 296 293 292 290 288 287
326 325 326 328 330 330 331 331 331 332 333 333 334 335 336 336 337 338 337 337 337 338 338 339 337 335 335 335 335 335 336 337 338 339 341 341 341 341 340 340 340 340 341 341 342 343 343 344 344 345 346 346 346 346 346 345 346 346 345 345 345 344 344 343 340 338 337 334 332 332 331 330 328 326 324 320 313 308 305 302 298 296 294 292 290
328 328 329 331 331 332 332 333 333 333 334 334 335 335 336 336 336 337 337 336 337 337 337 338 338 336 335 334 334 334 336 337 338 339 339 340 341 341 341 341 342 342 342 342 343 344 344 344 345 345 345 346 346 346 345 344 343 343 344 344 344 344 344 343 341 339 338 336 335 334 334 333 332 331 330 328 325 321 316 311 306 303 300 297 295
330 331 332 332 332 332 332 332 333 333 334 335 334 335 335 335 335 336 336 335 335 335 335 335 335 335 334 334 334 334 335 336 336 336 337 338 339 341 342 343 343 344 344 344 344 344 345 345 346 346 346 347 347 346 346 344 343 342 342 342 343 343 343 343 342 340 339 337 336 337 337 336 335 334 333 334 335 333 329 325 320 317 314 309 305
333 332 332 332 332 332 332 332 332 333 333 334 334 334 334 334 334 333 334 334 333 333 333 333 333 334 333 333 334 334 334 334 334 335 336 337 339 340 342 343 343 344 345 345 344 344 344 346 347 347 348 348 348 347 346 345 344 343 341 341 342 343 342 343 343 342 340 338 337 338 338 339 338 336 335 335 337 338 339 338 336 334 331 326 321
334 333 332 332 332 332 332 331 331 331 332 332 332 332 331 332 332 332 332 332 332 332 331 331 332 332 333 333 334 335 335 335 335 336 337 338 339 340 341 341 343 344 344 345 345 344 344 345 346 347 348 348 347 347 346 345 344 342 341 340 341 342 342 342 343 343 341 340 339 339 340 341 342 340 338 338 338 338 340 342 343 343 342 340 337
334 332 331 331 330 329 329 328 328 329 329 329 330 330 329 329 330 330 330 330 330 331 331 330 331 332 333 334 334 335 335 336 337 337 337 338 339 339 340 341 342 343 344 345 345 345 345 344 345 345 346 347 347 346 345 344 344 343 342 341 341 342 343 342 342 342 341 340 340 340 341 343 344 344 343 342 342 341 342 343 343 343 342 342 341
330 328 328 327 326 326 326 325 326 326 326 326 327 327 328 328 328 328 328 328 329 329 330 330 330 331 331 332 334 334 335 335 336 336 337 337 337 338 339 340 341 342 343 344 345 346 345 344 344 344 345 345 346 346 346 346 346 346 345 344 344 345 346 345 344 343 342 342 341 341 342 344 346 346 346 345 345 345 345 346 346 344 342 341 339
325 325 324 324 323 323 323 323 323 323 324 324 324 325 326 327 327 327 327 328 328 328 329 330 330 330 330 331 331 332 333 333 334 335 336 336 336 337 338 339 340 342 343 344 344 345 345 344 344 343 344 344 346 347 347 347 347 348 348 348 350 351 351 350 349 348 347 347 346 344 343 345 347 348 348 347 347 348 348 348 349 347 345 344 342
323 322 322 321 321 321 321 321 322 322 322 322 323 323 325 326 326 327 327 327 328 328 328 328 329 329 329 329 329 330 331 332 332 333 334 335 335 336 337 338 340 341 342 343 343 344 344 344 343 343 344 344 346 347 348 349 349 349 350 352 355 356 355 354 353 352 352 353 352 350 349 350 351 351 351 350 350 350 349 349 349 348 346 345 344
319 319 319 319 319 319 319 320 320 320 321 321 321 322 323 324 325 326 326 326 327 327 327 327 328 328 328 329 329 329 330 331 332 333 333 334 335 336 337 338 339 340 341 342 343 343 343 343 342 343 344 345 346 347 349 350 350 350 352 356 358 359 360 359 357 355 355 356 356 355 356 356 356 357 357 356 356 355 354 353 352 352 350 349 348
316 317 317 317 317 318 318 319 319 319 320 320 321 322 322 323 324 325 325 325 325 326 326 326 327 327 328 328 329 329 330 331 332 332 333 333 334 335 336 337 338 339 339 340 341 342 342 342 342 342 343 345 346 348 350 352 353 353 355 359 2 3 4 4 2 0 360 1 2 2 3 3 3 3 3 3 2 1 0 359 358 358 358 357 356
318 318 318 319 319 319 320 320 320 321 321 321 322 322 322 322 323 324 324 324 324 324 325 326 327 327 328 328 328 329 330 331 332 333 333 334 334 335 335 336 337 338 338 339 340 341 341 342 342 342 343 344 346 348 351 355 356 357 359 2 5 6 6 6 7 8 8 9 10 11 11 11 11 11 11 10 10 9 8 7 5 5 5 4 3
319 319 319 320 320 321 321 322 322 322 323 323 323 323 323 323 323 323 323 324 324 324 325 326 327 328 328 327 328 329 330 331 332 333 333 334 334 335 335 336 336 336 337 337 338 339 340 340 341 342 343 344 347 350 353 358 360 1 2 5 8 9 9 11 14 17 17 16 18 19 20 20 21 20 19 17 16 14 13 11 9 7 6 4 3
318 318 318 318 318 318 319 319 320 321 322 323 323 324 324 323 323 323 323 324 324 324 325 325 327 327 328 327 327 328 329 330 331 332 333 334 334 334 335 335 335 336 336 336 337 338 339 339 341 342 344 345 348 351 355 360 3 5 8 10 12 14 16 19 21 23 24 26 27 27 26 24 23 21 20 18 16 15 13 12 10 8 5 3 1
319 318 317 317 316 315 315 315 315 316 317 318 320 322 323 323 323 323 323 323 323 323 324 325 326 326 327 327 327 327 327 328 330 330 331 333 333 333 334 334 335 336 336 336 336 337 337 339 341 343 345 347 349 353 358 2 6 9 12 15 18 21 24 27 29 29 30 31 30 29 27 26 24 23 22 20 19 17 16 15 13 11 9 6 4
Height
3021 3020 3020 3020 3019 3019 3018 3017 3017 3016 3015 3014 3012 3011 3010 3008 3007 3006 3004 3003 3002 3000 2999 2997 2996 2994 2992 2990 2988 2986 2985 2983 2980 2978 2976 2974 2973 2971 2969 2968 2967 2965 2964 2962 2960 2959 2957 2956 2955 2953 2951 2950 2949 2947 2945 2944 2942 2941 2939 2936 2936 2934 2932 2930 2926 2929 2937 2934 2929 2930 2926 2922 2925 2927 2925 2926 2929 2928 2927 2929 2929 2930 2932 2932 2932
3017 3016 3016 3015 3015 3014 3013 3012 3011 3010 3009 3008 3006 3005 3004 3002 3001 2999 2998 2996 2995 2993 2991 2990 2988 2987 2985 2983 2981 2979 2976 2974 2972 2969 2967 2965 2964 2962 2960 2959 2957 2956 2954 2952 2951 2949 2947 2946 2945 2943 2941 2939 2938 2936 2934 2933 2931 2930 2929 2926 2925 2924 2921 2919 2917 2916 2922 2925 2920 2918 2918 2913 2912 2916 2914 2911 2916 2917 2914 2916 2918 2916 2917 2919 2920
3013 3012 3012 3011 3010 3009 3008 3007 3006 3004 3003 3002 3000 2999 2998 2996 2994 2993 2991 2989 2987 2986 2984 2982 2980 2978 2976 2974 2972 2970 2968 2965 2963 2960 2958 2956 2954 2953 2951 2949 2948 2946 2944 2942 2941 2939 2937 2936 2934 2932 2931 2929 2927 2926 2923 2922 2921 2919 2918 2917 2914 2913 2912 2909 2907 2906 2907 2912 2912 2907 2907 2904 2901 2904 2904 2900 2901 2902 2900 2902 2905 2905 2905 2906 2906
3008 3008 3007 3006 3005 3004 3003 3002 3001 2999 2998 2996 2995 2993 2992 2990 2988 2986 2984 2982 2980 2978 2976 2974 2972 2970 2967 2965 2963 2961 2958 2956 2954 2951 2948 2946 2945 2943 2941 2940 2938 2936 2935 2933 2931 2929 2927 2926 2924 2922 2920 2918 2916 2915 2913 2911 2910 2908 2906 2906 2903 2901 2901 2898 2897 2896 2895 2897 2901 2898 2895 2894 2892 2892 2894 2891 2889 2890 2888 2886 2889 2891 2892 2893 2895
3004 3003 3002 3001 3000 2999 2998 2997 2996 2994 2992 2991 2989 2987 2985 2983 2981 2979 2977 2975 2972 2970 2968 2965 2963 2961 2959 2956 2954 2952 2949 2947 2944 2941 2939 2937 2935 2934 2932 2930 2928 2926 2925 2923 2921 2919 2917 2915 2914 2911 2909 2908 2906 2905 2903 2901 2899 2897 2895 2894 2892 2889 2889 2887 2886 2885 2884 2884 2888 2887 2884 2883 2881 2881 2882 2881 2878 2878 2877 2875 2874 2876 2877 2879 2882
2999 2999 2998 2997 2995 2994 2993 2992 2990 2988 2986 2985 2983 2981 2979 2976 2974 2972 2969 2967 2964 2962 2960 2957 2955 2952 2950 2947 2945 2943 2940 2938 2935 2932 2930 2928 2926 2924 2922 2921 2919 2917 2915 2913 2911 2909 2907 2905 2903 2902 2899 2898 2896 2894 2892 2890 2888 2887 2885 2883 2881 2878 2877 2876 2875 2873 2873 2873 2874 2875 2874 2872 2870 2870 2871 2870 2867 2866 2865 2863 2863 2864 2864 2864 2866
2995 2994 2993 2992 2991 2989 2987 2986 2984 2982 2980 2978 2976 2974 2971 2969 2966 2964 2961 2958 2956 2953 2951 2949 2946 2944 2941 2939 2936 2934 2932 2929 2926 2923 2921 2918 2916 2915 2913 2911 2910 2908 2905 2903 2901 2899 2897 2896 2894 2892 2890 2888 2885 2883 2881 2879 2877 2876 2874 2872 2870 2868 2867 2866 2865 2863 2862 2863 2863 2863 2863 2861 2859 2859 2860 2859 2857 2855 2855 2852 2851 2852 2853 2852 2852
2991 2990 2988 2987 2985 2984 2982 2980 2978 2976 2973 2971 2968 2966 2963 2960 2958 2955 2953 2950 2947 2945 2943 2940 2938 2936 2933 2931 2928 2926 2924 2921 2918 2915 2912 2910 2908 2906 2904 2902 2900 2899 2896 2894 2892 2890 2889 2887 2884 2882 2880 2878 2876 2874 2871 2869 2866 2864 2864 2862 2859 2858 2857 2855 2855 2854 2853 2852 2853 2853 2852 2851 2849 2848 2849 2849 2846 2845 2845 2843 2841 2842 2842 2841 2841
2986 2985 2983 2982 2980 2978 2976 2974 2971 2969 2966 2964 2961 2958 2956 2953 2950 2948 2945 2943 2940 2937 2935 2933 2930 2928 2926 2923 2921 2918 2916 2913 2909 2906 2904 2901 2898 2896 2895 2893 2891 2889 2887 2885 2884 2882 2880 2878 2876 2873 2871 2868 2866 2864 2861 2859 2856 2854 2853 2851 2849 2848 2847 2846 2845 2844 2843 2842 2842 2842 2841 2840 2840 2838 2838 2839 2837 2835 2835 2834 2832 2832 2832 2830 2830
2981 2979 2978 2976 2974 2972 2969 2967 2964 2962 2959 2956 2954 2951 2949 2946 2944 2941 2938 2936 2933 2930 2928 2926 2923 2921 2919 2916 2913 2911 2908 2904 2901 2898 2895 2891 2888 2886 2884 2883 2881 2879 2878 2876 2874 2872 2870 2868 2867 2865 2862 2859 2857 2854 2852 2849 2847 2844 2842 2841 2839 2838 2837 2836 2835 2834 2833 2831 2831 2832 2829 2828 2830 2829 2827 2829 2829 2826 2826 2824 2822 2823 2823 2821 2820
2975 2974 2972 2969 2967 2965 2962 2960 2957 2955 2952 2949 2947 2945 2942 2939 2937 2934 2932 2929 2926 2924 2921 2919 2916 2914 2911 2909 2906 2903 2900 2896 2893 2890 2887 2883 2879 2876 2875 2874 2872 2870 2867 2865 2863 2861 2859 2857 2856 2855 2852 2850 2848 2845 2842 2840 2838 2835 2833 2832 2830 2828 2826 2825 2824 2823 2822 2821 2821 2821 2819 2818 2820 2820 2818 2819 2820 2818 2816 2815 2813 2812 2814 2812 2811
2969 2967 2965 2963 2960 2958 2955 2953 2950 2948 2945 2943 2940 2938 2935 2933 2931 2928 2925 2923 2920 2917 2914 2912 2909 2906 2904 2901 2898 2895 2892 2888 2885 2881 2878 2875 2870 2867 2867 2866 2863 2861 2858 2855 2853 2850 2847 2846 2844 2843 2841 2839 2837 2835 2833 2831 2829 2827 2825 2824 2822 2820 2818 2815 2813 2813 2812 2811 2810 2810 2810 2809 2809 2810 2810 2809 2809 2808 2807 2806 2805 2804 2804 2805 2803
2963 2961 2959 2956 2954 2951 2949 2946 2944 2941 2939 2936 2934 2932 2929 2926 2924 2921 2919 2916 2913 2910 2907 2905 2902 2899 2896 2894 2891 2888 2885 2881 2878 2874 2871 2868 2863 2860 2861 2860 2856 2853 2850 2848 2845 2841 2838 2836 2834 2831 2830 2828 2826 2824 2823 2821 2819 2817 2816 2814 2813 2811 2810 2808 2806 2805 2803 2802 2800 2800 2801 2800 2798 2799 2800 2798 2797 2798 2798 2798 2798 2797 2796 2797 2797
2957 2955 2953 2950 2948 2945 2943 2940 2938 2935 2933 2930 2928 2926 2923 2920 2918 2915 2912 2909 2907 2904 2901 2898 2895 2892 2890 2887 2884 2882 2878 2875 2872 2868 2864 2861 2858 2855 2855 2853 2849 2847 2844 2841 2837 2833 2830 2827 2824 2822 2819 2817 2815 2814 2812 2810 2808 2806 2805 2804 2803 2802 2801 2800 2799 2798 2797 2795 2792 2791 2792 2792 2789 2788 2789 2789 2788 2788 2790 2790 2790 2790 2789 2789 2791
2952 2949 2946 2944 2941 2939 2937 2934 2932 2929 2927 2925 2922 2920 2917 2915 2912 2909 2906 2903 2900 2898 2895 2891 2889 2886 2883 2880 2878 2875 2872 2869 2865 2861 2858 2854 2852 2851 2849 2847 2844 2841 2838 2835 2830 2826 2822 2819 2816 2813 2811 2808 2806 2804 2802 2799 2796 2794 2794 2793 2793 2792 2791 2791 2791 2791 2790 2789 2787 2784 2783 2783 2781 2779 2780 2780 2779 2780 2782 2782 2782 2783 2781 2781 2783
2946 2943 2941 2938 2936 2933 2931 2929 2926 2924 2922 2919 2917 2914 2912 2909 2906 2903 2900 2897 2894 2891 2888 2885 2882 2880 2876 2874 2872 2869 2866 2864 2860 2855 2852 2849 2846 2845 2843 2841 2838 2835 2832 2828 2824 2819 2816 2812 2809 2806 2803 2800 2798 2796 2793 2788 2785 2783 2783 2783 2782 2781 2781 2782 2783 2784 2784 2783 2781 2778 2776 2775 2775 2773 2771 2771 2771 2772 2774 2775 2775 2775 2773 2773 2774
2940 2937 2935 2933 2930 2928 2926 2924 2921 2919 2917 2914 2912 2909 2907 2904 2901 2898 2895 2892 2889 2886 2883 2879 2876 2874 2871 2868 2867 2864 2861 2859 2855 2851 2847 2843 2841 2840 2838 2835 2832 2829 2825 2821 2817 2813 2809 2806 2802 2798 2795 2792 2790 2789 2785 2780 2776 2775 2774 2772 2772 2771 2771 2773 2775 2777 2777 2776 2774 2772 2770 2769 2769 2768 2766 2764 2764 2765 2766 2767 2768 2767 2766 2767 2767
2935 2932 2930 2928 2926 2924 2921 2919 2917 2915 2912 2910 2907 2904 2902 2899 2896 2893 2890 2887 2884 2881 2878 2875 2871 2869 2866 2863 2861 2859 2856 2854 2851 2846 2842 2838 2836 2834 2832 2829 2825 2822 2818 2815 2810 2806 2803 2800 2796 2792 2788 2785 2783 2781 2778 2773 2770 2768 2765 2763 2763 2764 2765 2766 2767 2769 2769 2768 2768 2767 2765 2764 2764 2763 2762 2760 2759 2759 2759 2760 2760 2760 2759 2760 2759
2929 2927 2925 2923 2921 2919 2917 2915 2913 2910 2908 2905 2903 2900 2897 2894 2891 2888 2885 2882 2879 2876 2873 2870 2867 2864 2862 2859 2856 2854 2851 2848 2845 2841 2837 2833 2830 2828 2826 2822 2819 2816 2812 2808 2804 2800 2797 2794 2791 2786 2782 2780 2778 2775 2771 2767 2763 2760 2758 2757 2757 2758 2759 2759 2759 2759 2760 2760 2760 2761 2760 2760 2759 2758 2757 2756 2755 2755 2755 2754 2754 2753 2753 2753 2753
2925 2923 2921 2919 2917 2915 2913 2911 2908 2906 2903 2901 2898 2895 2892 2890 2887 2884 2881 2877 2875 2872 2869 2865 2862 2859 2857 2854 2851 2849 2846 2844 2841 2837 2833 2829 2825 2823 2820 2817 2814 2810 2807 2803 2799 2795 2792 2789 2785 2782 2777 2775 2773 2769 2765 2762 2757 2754 2753 2753 2753 2752 2753 2752 2751 2751 2751 2752 2753 2754 2754 2754 2754 2753 2752 2752 2751 2750 2750 2750 2749 2748 2747 2746 2746
2921 2919 2917 2915 2913 2911 2909 2907 2904 2902 2899 2896 2894 2891 2888 2886 2883 2880 2877 2874 2871 2868 2865 2861 2858 2855 2853 2850 2847 2845 2842 2839 2836 2833 2829 2825 2821 2818 2816 2812 2809 2805 2802 2798 2794 2790 2787 2784 2781 2777 2773 2770 2768 2764 2760 2757 2753 2751 2751 2750 2749 2747 2747 2746 2745 2744 2745 2746 2746 2747 2747 2747 2748 2747 2747 2746 2745 2745 2745 2745 2744 2743 2742 2741 2740
2917 2915 2913 2911 2909 2907 2905 2903 2900 2898 2895 2893 2890 2887 2884 2882 2879 2876 2873 2870 2867 2864 2861 2858 2855 2852 2850 2847 2844 2841 2838 2835 2832 2829 2826 2822 2818 2814 2811 2808 2804 2801 2797 2793 2789 2785 2782 2779 2776 2773 2769 2766 2763 2760 2756 2753 2751 2750 2748 2747 2745 2744 2742 2742 2741 2740 2740 2741 2741 2741 2741 2742 2742 2742 2741 2740 2739 2740 2740 2739 2738 2738 2737 2736 2734
2913 2912 2910 2908 2906 2903 2901 2899 2897 2894 2892 2889 2886 2884 2881 2879 2876 2874 2871 2867 2864 2861 2858 2856 2853 2850 2847 2844 2841 2838 2835 2832 2829 2826 2823 2819 2815 2811 2807 2804 2800 2796 2793 2788 2784 2781 2778 2775 2772 2769 2766 2763 2759 2756 2753 2750 2748 2747 2745 2742 2741 2740 2739 2737 2736 2736 2736 2736 2736 2736 2736 2736 2737 2736 2735 2735 2734 2734 2734 2733 2733 2732 2731 2730 2729
2910 2908 2906 2904 2902 2900 2897 2895 2893 2891 2889 2886 2883 2881 2878 2876 2873 2871 2868 2865 2862 2859 2856 2853 2850 2847 2844 2841 2838 2835 2832 2829 2826 2823 2819 2816 2812 2808 2804 2800 2796 2793 2789 2785 2781 2778 2775 2772 2768 2765 2762 2760 2757 2753 2750 2747 2745 2743 2741 2739 2738 2736 2734 2733 2732 2732 2731 2731 2730 2730 2730 2731 2730 2730 2729 2729 2729 2728 2728 2728 2727 2726 2724 2724 2723
2906 2904 2902 2900 2898 2896 2894 2892 2890 2888 2885 2883 2881 2878 2876 2873 2871 2868 2865 2862 2859 2857 2854 2851 2848 2845 2842 2839 2836 2833 2830 2827 2823 2820 2817 2813 2810 2806 2802 2799 2795 2791 2787 2783 2779 2775 2772 2769 2765 2762 2759 2756 2754 2751 2748 2745 2742 2740 2738 2737 2734 2732 2731 2729 2728 2728 2727 2726 2726 2725 2725 2725 2725 2724 2724 2724 2723 2723 2723 2722 2721 2720 2719 2718 2717
2902 2900 2898 2897 2894 2892 2890 2888 2886 2884 2882 2880 2878 2876 2873 2871 2869 2866 2863 2860 2857 2854 2851 2849 2846 2843 2840 2837 2833 2830 2828 2825 2821 2818 2815 2811 2808 2804 2801 2798 2794 2790 2786 2782 2778 2774 2770 2767 2763 2760 2757 2754 2751 2748 2745 2743 2741 2738 2736 2734 2732 2730 2728 2726 2725 2724 2723 2722 2722 2721 2721 2720 2720 2719 2719 2718 2717 2717 2717 2716 2715 2714 2713 2712 2711
2899 2897 2895 2893 2891 2889 2887 2885 2883 2881 2879 2877 2875 2873 2870 2868 2866 2864 2861 2858 2855 2852 2849 2846 2844 2841 2838 2835 2831 2828 2825 2822 2819 2816 2813 2810 2806 2803 2800 2796 2792 2788 2784 2781 2777 2773 2769 2765 2762 2758 2755 2752 2749 2746 2743 2741 2739 2736 2734 2732 2730 2728 2726 2724 2722 2721 2720 2719 2718 2717 2716 2716 2715 2715 2714 2713 2712 2712 2711 2710 2709 2708 2708 2707 2705
2896 2894 2892 2890 2889 2886 2884 2882 2880 2878 2876 2874 2872 2870 2867 2865 2863 2861 2859 2856 2853 2850 2847 2844 2842 2838 2836 2833 2830 2826 2822 2819 2816 2813 2810 2807 2804 2800 2797 2793 2790 2786 2782 2779 2775 2771 2767 2764 2760 2757 2753 2750 2747 2744 2741 2739 2736 2734 2732 2729 2727 2725 2723 2721 2720 2718 2717 2716 2715 2713 2713 2712 2711 2710 2709 2708 2708 2707 2706 2705 2704 2703 2702 2701 2700
2893 2891 2890 2888 2886 2884 2882 2880 2878 2875 2873 2870 2868 2867 2865 2863 2860 2858 2855 2853 2850 2848 2845 2842 2840 2836 2833 2830 2828 2825 2821 2817 2814 2810 2807 2803 2800 2797 2794 2791 2787 2784 2780 2776 2773 2770 2766 2762 2759 2756 2752 2749 2746 2743 2740 2737 2734 2732 2729 2727 2725 2723 2721 2719 2717 2716 2714 2713 2711 2710 2709 2708 2707 2706 2705 2704 2704 2703 2702 2700 2699 2698 2697 2696 2695
2890 2889 2887 2885 2883 2881 2879 2877 2875 2873 2870 2867 2864 2862 2861 2860 2858 2855 2853 2850 2848 2845 2843 2840 2837 2835 2831 2828 2825 2822 2819 2815 2812 2808 2805 2801 2798 2794 2792 2789 2785 2782 2779 2775 2771 2768 2765 2761 2758 2754 2751 2748 2745 2742 2739 2736 2733 2731 2728 2725 2723 2721 2719 2717 2715 2714 2712 2710 2709 2707 2706 2705 2704 2703 2701 2701 2700 2699 2697 2696 2694 2693 2692 2691 2691
2888 2886 2884 2883 2881 2879 2877 2875 2872 2870 2868 2865 2862 2859 2856 2855 2854 2853 2850 2848 2845 2843 2840 2837 2835 2832 2830 2827 2823 2820 2817 2814 2811 2807 2804 2800 2797 2794 2791 2788 2784 2781 2778 2774 2771 2767 2764 2761 2757 2754 2750 2747 2744 2741 2738 2735 2732 2730 2727 2725 2722 2719 2717 2715 2713 2711 2710 2708 2706 2705 2703 2702 2700 2699 2698 2697 2696 2695 2693 2692 2691 2689 2689 2688 2688
2885 2883 2882 2880 2878 2876 2874 2872 2870 2868 2866 2864 2861 2858 2855 2852 2850 2848 2847 2845 2843 2841 2838 2836 2833 2830 2827 2825 2822 2819 2816 2813 2810 2807 2803 2800 2796 2793 2790 2787 2784 2781 2777 2774 2771 2767 2764 2760 2757 2753 2750 2747 2744 2740 2737 2734 2732 2729 2726 2724 2721 2718 2716 2714 2712 2710 2708 2706 2704 2703 2701 2699 2698 2697 2695 2694 2693 2692 2690 2689 2688 2687 2686 2685 2684
2882 2881 2879 2878 2876 2874 2872 2870 2868 2867 2865 2863 2861 2858 2856 2853 2849 2846 2843 2841 2839 2837 2836 2833 2831 2828 2825 2823 2820 2818 2815 2812 2809 2806 2803 2799 2796 2792 2789 2785 2783 2780 2777 2773 2770 2767 2763 2760 2756 2753 2750 2747 2743 2740 2737 2734 2731 2728 2726 2723 2721 2718 2715 2713 2711 2709 2707 2705 2703 2701 2699 2698 2696 2695 2693 2692 2690 2689 2688 2686 2685 2684 2683 2682 2682
2880 2878 2877 2875 2874 2872 2870 2868 2867 2865 2863 2862 2860 2858 2856 2853 2851 2848 2844 2841 2838 2835 2832 2830 2829 2826 2824 2821 2818 2816 2813 2810 2807 2805 2802 2799 2795 2792 2788 2784 2781 2778 2775 2772 2769 2766 2763 2759 2756 2753 2750 2746 2743 2740 2737 2734 2731 2728 2725 2723 2720 2717 2715 2712 2710 2708 2706 2704 2702 2700 2698 2696 2694 2693 2692 2690 2689 2687 2685 2684 2683 2681 2680 2680 2679
2877 2876 2875 2873 2872 2870 2869 2867 2865 2864 2862 2860 2858 2856 2854 2852 2850 2848 2846 2843 2840 2836 2833 2830 2827 2825 2822 2819 2816 2814 2811 2808 2806 2803 2800 2798 2794 2791 2788 2784 2780 2777 2774 2771 2768 2765 2762 2759 2756 2753 2749 2746 2743 2740 2737 2734 2731 2728 2725 2722 2720 2717 2714 2712 2709 2707 2705 2703 2700 2698 2696 2695 2693 2691 2690 2688 2687 2685 2683 2682 2680 2679 2678 2677 2676
2876 2874 2873 2872 2870 2869 2867 2866 2864 2862 2860 2858 2856 2854 2852 2850 2848 2846 2844 2841 2839 2836 2833 2829 2826 2823 2820 2817 2814 2811 2809 2806 2804 2801 2798 2795 2793 2790 2787 2784 2780 2777 2774 2770 2767 2764 2761 2758 2755 2752 2749 2746 2743 2740 2737 2734 2731 2728 2725 2722 2720 2717 2714 2712 2709 2707 2704 2702 2699 2697 2695 2693 2691 2689 2688 2686 2684 2683 2681 2680 2678 2677 2676 2674 2673
2874 2873 2871 2870 2869 2867 2866 2864 2862 2861 2859 2857 2855 2853 2850 2848 2846 2844 2842 2839 2837 2834 2831 2829 2826 2822 2819 2816 2813 2810 2807 2804 2801 2799 2796 2793 2790 2787 2785 2782 2779 2776 2773 2770 2767 2764 2760 2757 2754 2751 2748 2745 2742 2739 2736 2733 2731 2728 2725 2722 2719 2717 2714 2711 2709 2706 2704 2701 2699 2697 2694 2692 2690 2688 2686 2684 2682 2680 2679 2677 2676 2675 2673 2672 2671
2873 2871 2870 2868 2867 2865 2864 2862 2861 2859 2857 2855 2853 2851 2849 2846 2844 2842 2839 2837 2835 2832 2830 2827 2825 2822 2819 2816 2813 2809 2806 2803 2800 2797 2794 2792 2789 2786 2783 2780 2778 2775 2772 2769 2766 2763 2760 2757 2754 2751 2748 2745 2742 2739 2736 2733 2730 2727 2725 2722 2719 2716 2714 2711 2708 2706 2703 2701 2699 2696 2694 2692 2689 2687 2685 2683 2681 2679 2677 2675 2673 2672 2671 2670 2668
2871 2870 2868 2867 2865 2864 2862 2861 2859 2857 2855 2853 2851 2849 2847 2845 2842 2840 2838 2835 2833 2830 2828 2825 2823 2821 2818 2815 2812 2809 2806 2803 2800 2797 2794 2791 2788 2785 2782 2780 2777 2774 2771 2768 2765 2762 2759 2756 2753 2750 2747 2744 2741 2738 2735 2733 2730 2727 2724 2721 2718 2716 2713 2711 2708 2705 2703 2700 2698 2696 2693 2691 2689 2686 2684 2682 2680 2678 2676 2674 2672 2671 2669 2668 2667
2870 2868 2867 2865 2864 2863 2861 2859 2858 2856 2854 2852 2850 2847 2845 2843 2840 2838 2836 2833 2831 2828 2826 2823 2821 2819 2816 2814 2811 2809 2806 2803 2800 2797 2794 2791 2788 2784 2782 2779 2776 2773 2770 2767 2764 2761 2758 2755 2753 2750 2747 2744 2741 2738 2735 2732 2729 2726 2723 2721 2718 2715 2713 2710 2707 2705 2703 2700 2698 2695 2693 2691 2688 2686 2684 2682 2680 2678 2676 2674 2672 2670 2668 2667 2666
2868 2867 2866 2864 2862 2861 2859 2858 2856 2854 2852 2850 2848 2846 2843 2841 2839 2836 2834 2832 2829 2827 2824 2821 2819 2816 2814 2811 2809 2806 2804 2801 2798 2795 2792 2789 2786 2783 2780 2778 2775 2772 2769 2767 2764 2760 2757 2754 2752 2749 2746 2743 2740 2737 2735 2732 2729 2726 2723 2720 2718 2715 2712 2709 2707 2705 2702 2700 2697 2695 2693 2690 2688 2686 2684 2681 2679 2677 2675 2674 2672 2670 2668 2667 2665
2867 2865 2864 2863 2861 2859 2858 2856 2854 2852 2850 2848 2846 2844 2842 2839 2837 2834 2832 2830 2827 2825 2822 2819 2816 2814 2811 2809 2806 2804 2801 2798 2796 2793 2790 2787 2784 2782 2779 2776 2774 2771 2768 2766 2763 2760 2757 2754 2751 2748 2745 2743 2740 2737 2734 2732 2729 2726 2723 2720 2718 2715 2712 2709 2707 2704 2702 2699 2697 2694 2692 2690 2688 2686 2684 2681 2679 2677 2676 2674 2672 2670 2669 2667 2666
2865 2864 2862 2861 2859 2858 2856 2854 2852 2850 2848 2846 2844 2842 2840 2837 2835 2832 2830 2828 2825 2823 2820 2818 2815 2812 2809 2807 2804 2801 2799 2796 2794 2791 2788 2785 2783 2780 2778 2775 2772 2770 2767 2764 2761 2759 2756 2753 2750 2747 2744 2742 2739 2736 2734 2731 2728 2726 2723 2720 2717 2714 2712 2709 2706 2704 2701 2699 2697 2694 2692 2690 2688 2686 2684 2681 2679 2678 2676 2674 2672 2670 2669 2667 2666
2864 2862 2861 2859 2857 2856 2854 2852 2850 2848 2846 2844 2842 2839 2837 2835 2833 2830 2828 2826 2823 2821 2818 2816 2813 2811 2808 2805 2802 2800 2797 2794 2792 2789 2787 2784 2781 2779 2776 2773 2771 2768 2766 2763 2760 2758 2755 2752 2749 2746 2744 2741 2738 2736 2733 2730 2727 2725 2722 2720 2717 2714 2711 2709 2706 2704 2701 2699 2697 2694 2692 2690 2688 2686 2684 2682 2680 2678 2676 2674 2672 2670 2669 2667 2666
2862 2861 2859 2857 2855 2853 2852 2850 2848 2846 2844 2842 2839 2837 2835 2833 2830 2828 2826 2823 2821 2818 2816 2814 2811 2809 2806 2804 2801 2798 2796 2793 2790 2788 2785 2783 2780 2777 2775 2772 2770 2767 2765 2762 2759 2757 2754 2752 2749 2746 2743 2741 2738 2735 2732 2730 2727 2724 2722 2719 2716 2714 2711 2708 2706 2703 2701 2699 2697 2694 2692 2690 2688 2686 2684 2682 2680 2678 2676 2674 2672 2671 2669 2667 2666
2860 2859 2857 2855 2853 2851 2849 2847 2845 2843 2841 2839 2837 2835 2832 2830 2828 2826 2823 2821 2819 2817 2814 2812 2809 2807 2805 2802 2800 2797 2794 2792 2789 2786 2784 2781 2779 2776 2773 2771 2768 2766 2763 2761 2758 2756 2753 2751 2748 2746 2743 2740 2737 2735 2732 2729 2727 2724 2721 2719 2716 2714 2711 2709 2706 2704 2701 2699 2697 2695 2692 2690 2688 2686 2684 2682 2680 2678 2676 2674 2673 2671 2669 2667 2666
2858 2857 2855 2853 2851 2849 2847 2845 2843 2841 2839 2837 2834 2832 2830 2828 2825 2823 2821 2819 2817 2814 2812 2810 2808 2805 2803 2800 2798 2795 2793 2790 2788 2785 2782 2780 2777 2775 2772 2769 2767 2764 2762 2759 2757 2755 2752 2750 2747 2745 2742 2740 2737 2735 2732 2729 2727 2724 2721 2719 2716 2714 2711 2709 2707 2704 2702 2700 2698 2695 2693 2691 2689 2687 2685 2683 2681 2679 2677 2675 2673 2671 2670 2668 2666
2856 2854 2853 2851 2849 2847 2845 2843 2841 2839 2836 2834 2832 2830 2827 2825 2823 2821 2819 2817 2814 2812 2810 2808 2806 2803 2801 2798 2796 2794 2791 2789 2786 2784 2781 2779 2776 2773 2771 2768 2766 2763 2761 2758 2756 2753 2751 2749 2747 2744 2742 2739 2737 2734 2732 2729 2727 2724 2721 2719 2716 2714 2712 2709 2707 2705 2703 2701 2698 2696 2694 2692 2690 2688 2686 2684 2682 2680 2678 2676 2674 2672 2670 2668 2667
2854 2852 2850 2848 2847 2845 2843 2841 2839 2836 2834 2832 2830 2827 2825 2823 2821 2819 2817 2814 2812 2810 2808 2806 2804 2801 2799 2797 2794 2792 2789 2787 2785 2782 2780 2777 2775 2772 2769 2767 2764 2762 2760 2757 2755 2752 2750 2748 2746 2744 2741 2739 2736 2734 2731 2729 2727 2724 2722 2719 2717 2715 2712 2710 2708 2706 2704 2702 2700 2697 2695 2693 2691 2689 2687 2685 2683 2681 2679 2677 2675 2673 2672 2670 2668
2851 2850 2848 2846 2844 2842 2840 2838 2836 2834 2832 2830 2828 2826 2823 2821 2819 2816 2814 2812 2810 2808 2806 2804 2802 2799 2797 2795 2793 2790 2788 2785 2783 2781 2778 2776 2773 2771 2768 2766 2763 2761 2758 2756 2754 2752 2749 2747 2745 2743 2741 2738 2736 2734 2731 2729 2727 2724 2722 2720 2718 2715 2713 2711 2709 2707 2705 2703 2701 2699 2697 2695 2693 2691 2689 2687 2685 2683 2681 2679 2677 2675 2673 2671 2669
2849 2847 2845 2843 2841 2839 2838 2836 2834 2832 2830 2828 2826 2823 2821 2819 2817 2814 2812 2810 2808 2806 2804 2802 2800 2797 2795 2793 2791 2789 2786 2784 2782 2779 2777 2775 2772 2770 2767 2765 2762 2760 2757 2755 2753 2751 2749 2746 2744 2742 2740 2738 2736 2733 2731 2729 2726 2724 2722 2720 2718 2716 2714 2712 2710 2708 2707 2705 2702 2700 2698 2696 2694 2692 2690 2688 2686 2684 2682 2680 2678 2676 2673 2671 2669